Sexton Summit, OR

10:17 AM PDT on April 30, 2017 (GMT -0700)
Sexton Summit

Weather History for KSXT - October, 2012

Change the Weather History Date:

Thursday, October 18, 2012

  Actual Average Record
Temperature  
Mean Temperature 61 °F -  
Max Temperature 70 °F 55 °F 72 °F (1999)
Min Temperature 53 °F 41 °F 30 °F (1996)
Degree Days  
Heating Degree Days 4    
Growing Degree Days 11 (Base 50)    
Moisture  
Dew Point 32 °F    
Average Humidity 35    
Maximum Humidity 46    
Minimum Humidity 24    
Precipitation  
Precipitation 0.00 in - - ()
Sea Level Pressure  
Sea Level Pressure 30.01 in    
Wind  
Wind Speed 9 mph (SE)    
Max Wind Speed 18 mph    
Max Gust Speed 26 mph    
Visibility 10 miles    
Events      
Averages and records for this station are not official NWS values.
T = Trace of Precipitation, MM = Missing Value Source: NWS Daily Summary

Daily Weather History Graph

Daily Weather History Graph

Search for Another Location

Airport or City:

Trip Planner

Search our weather history database for the weather conditions in past years. The results will help you decide how hot, cold, wet, or windy it might be!

Date:

Astronomy

Oct. 18, 2012 Rise Set
Actual Time 7:30 AM PDT 6:25 PM PDT
Civil Twilight 7:02 AM PDT 6:54 PM PDT
Nautical Twilight 6:29 AM PDT 7:26 PM PDT
Astronomical Twilight 5:56 AM PDT 7:59 PM PDT
Moon 11:23 AM PDT (10/18) 9:00 PM PDT (10/18)
Length of Visible Light 11h 51m
Length of Day
10h 54m
Waxing Crescent, 15% of the Moon is Illuminated
Oct 18
Waxing Crescent
Oct 21
First Quarter
Oct 29
Full
Nov 6
Last Quarter
Nov 13
New

Hourly Weather History & Observations

Time (PDT) Temp. Dew Point Humidity Pressure Visibility Wind Dir Wind Speed Gust Speed Precip Events Conditions
12:56 AM 55.9 °F 28.0 °F 34% 30.10 in 10.0 mi East 6.9 mph - N/A   Clear
1:56 AM 55.0 °F 28.9 °F 37% 30.09 in 10.0 mi East 6.9 mph - N/A   Clear
2:56 AM 55.0 °F 28.0 °F 35% 30.08 in 10.0 mi East 9.2 mph - N/A   Clear
3:56 AM 55.0 °F 27.0 °F 34% 30.06 in 10.0 mi East 9.2 mph - N/A   Clear
4:56 AM 54.0 °F 26.1 °F 34% 30.04 in 10.0 mi ESE 11.5 mph - 0.00 in   Clear
5:56 AM 54.0 °F 25.0 °F 33% 30.05 in 10.0 mi East 8.1 mph - N/A   Clear
6:56 AM 53.1 °F 25.0 °F 34% 30.03 in 10.0 mi ESE 11.5 mph - N/A   Clear
7:56 AM 53.1 °F 27.0 °F 37% 30.02 in 10.0 mi ESE 16.1 mph - N/A   Clear
8:56 AM 55.9 °F 28.9 °F 36% 30.01 in 10.0 mi ESE 15.0 mph 21.9 mph N/A   Clear
9:56 AM 57.0 °F 30.0 °F 36% 30.00 in 10.0 mi ESE 15.0 mph 26.5 mph N/A   Clear
10:56 AM 59.0 °F 27.0 °F 29% 29.99 in 10.0 mi ESE 18.4 mph 25.3 mph 0.00 in   Clear
11:56 AM 63.0 °F 28.0 °F 27% 29.99 in 10.0 mi ESE 13.8 mph - N/A   Clear
12:56 PM 66.0 °F 30.9 °F 27% 29.98 in 10.0 mi SE 10.4 mph - N/A   Clear
1:56 PM 68.0 °F 33.1 °F 27% 29.97 in 10.0 mi SSE 6.9 mph - N/A   Clear
2:56 PM 69.1 °F 30.9 °F 24% 29.96 in 10.0 mi Variable 4.6 mph - 0.00 in   Clear
3:56 PM 68.0 °F 35.1 °F 30% 29.96 in 10.0 mi Calm Calm - N/A   Clear
4:56 PM 64.9 °F 36.0 °F 34% 29.97 in 10.0 mi Calm Calm - N/A   Clear
5:56 PM 61.0 °F 37.0 °F 41% 29.98 in 10.0 mi Variable 3.5 mph - 0.00 in   Clear
6:56 PM 62.1 °F 37.0 °F 39% 29.98 in 10.0 mi Variable 4.6 mph - N/A   Clear
7:56 PM 62.1 °F 37.0 °F 39% 29.99 in 10.0 mi WSW 5.8 mph - N/A   Clear
8:56 PM 61.0 °F 37.9 °F 42% 29.97 in 10.0 mi SSW 9.2 mph - N/A   Clear
9:56 PM 60.1 °F 37.9 °F 44% 29.97 in 10.0 mi SSW 9.2 mph - N/A   Clear
10:56 PM 59.0 °F 37.9 °F 46% 29.98 in 10.0 mi SSW 10.4 mph - N/A   Clear
11:56 PM 59.0 °F 37.0 °F 44% 29.98 in 10.0 mi SSW 9.2 mph - N/A   Clear